SCP
0 0 0 0 0 0 0 0 0 0 0 0 0 0 0 0 0 -0 0 0 0 0 0 0 0 0 0 0 0 0 0 0 0 0 0 0 0 0 0 0 0 0 0 0 0 0 0
0 0 0 0 0 0 0 0 0 0 0 0 0 0 0 0 0 0 0 0 0 0 0 0 0 0 0 0 0 0 0 0 0 0 0 0 0 0 0 0 0 0 0 0 0 0 0
0 0 0 0 0 0 0 0 0 0 0 0 0 0 0 0 0 0 0 0 0 0 0 0 0 0 0 0 0 0 0 0 0 0 0 0 0 0 0 0 0 0 0 0 0 0 0
0 0 0 0 0 0 0 0 0 0 0 0 0 0 0 0 0 0 0 0 0 0 0 0 0 0 0 0 0 0 0 0 0 0 0 0 0 0 0 0 0 0 0 0 0 -0 -0
0 0 0 0 0 0 0 0 0 0 0 0 0 0 0 0 0 0 0 0 0 0 0 0 0 0 0 0 0 0 0 0 0 0 0 0 0 0 0 0 0 0 -0 0 0 -0 -0
0 0 0 0 0 0 0 0 0 0 0 0 0 0 0 0 0 0 0 0 0 0 0 0 0 0 0 0 0 -0 0 0 0 0 0 0 0 0 0 0 0 0 0 0 0 0 0
0 0 0 0 0 0 0 0 0 0 0 0 0 0 0 0 0 0 0 0 0 0 0 0 0 -0 0 0 0 0 0 0 0 0 0 0 0 0 0 0 -0 0 0 0 0 0 0
0 0 0 0 0 0 0 0 0 0 0 0 0 0 0 0 0 0 0 0 0 0 0 0 -0 0 0 0 0 0 0 0 0 0 0 0 0 0 0 0 0 0 0 0 0 0 0
0 0 0 0 0 0 0 0 0 0 0 0 0 0 0 0 0 0 0 0 0 0 0 0 0 0 0 0 0 0 0 0 0 0 0 0 -0 0 0 0 0 -0 0 0 0 0 0
0 0 0 0 0 0 0 0 0 0 0 0 0 0 0 0 0 0 0 0 0 0 0 0 0 0 0 0 0 0 0 0 0 0 0 0 0 0 -0 0 0 0 -0 0 0 0 0
0 0 0 0 0 0 0 0 0 0 0 0 0 0 0 0 0 0 0 0 0 0 0 0 0 0 0 0 0 0 0 0 0 0 0 0 0 -0 0 -0 -0 -0 0 0 0 0 0
0 0 0 0 0 0 0 0 0 0 0 0 0 0 0 0 0 0 0 0 0 0 0 0 0 0 0 0 0 0 0 0 0 0 0 0 -0 -0 -0 -0 0 -0 0 0 -0 0 0
0 0 0 0 0 0 0 0 0 0 0 0 0 0 0 0 0 0 0 0 0 0 0 0 0 0 0 0 -0 -0 -0 -0 0 0 0 0 -0 -0 0 0 0 0 0 0 0 0 0
0 0 0 0 0 0 0 0 0 0 0 0 0 0 0 0 0 0 0 0 0 0 0 0 0 0 0 0 -0 -0 -0 0 0 0 0 0 -0 0 0 -0 0 0 0 0 0 0 0
0 0 0 0 0 0 0 0 0 0 0 0 0 0 0 0 0 0 0 0 0 0 0 0 0 0 0 0 -0 -0 0 0 0 0 0 0 0 -0 -0 -0 0 -0 -0 -0 0 -0 0
0 0 0 0 0 0 0 0 0 0 0 0 0 0 0 0 0 0 0 0 0 0 0 0 0 0 0 -0 -0 -0 0 0 0 0 0 0 0 0 0 0 -0 -0 -0 -0 -0 -0 -0
0 0 0 0 0 0 0 0 0 0 0 0 0 0 0 0 0 0 0 0 0 0 0 0 0 0 0 -0 0 -0 0 0 0 0 0 0 0 0 0 0 0 0 -0 -0 -0 -0 0
0 0 0 0 0 0 0 0 0 0 0 0 0 0 0 0 0 0 0 0 0 0 0 0 0 0 0 -0 0 -0 0 0 0 0 0 0 0 0 0 -0 0 -0 0 -0 0 0 0
0 0 0 0 0 0 0 0 0 0 0 0 0 0 0 0 0 0 0 0 0 0 0 0 0 0 0 -0 -0 0 0 0 0 0 -0 -0 0 -0 -0 0 -0 0 -0 0 -0 0 -0
0 0 0 0 0 0 0 0 0 0 0 0 0 0 0 0 0 0 0 0 0 0 0 0 0 0 0 -0 -0 0 0 0 0 0 0 -0 0 0 0 -0 -0 -0 -0 -0 0 0 -0
0 0 0 0 0 0 0 0 0 0 0 0 0 0 0 0 0 0 0 0 0 0 0 0 0 0 0 0 0 0 0 -0 0 0 0 -0 0 0 -0 -0 -0 -0 -0 -0 -0 -0 0
0 0 0 -0 0 0 0 0 0 0 0 0 0 0 0 0 0 0 0 0 0 0 0 0 0 0 -0 -0 0 -0 -0 -0 0 0 0 -0 0 -0 0 0 -0 -0 -0 -0 -0 -0 -0
0 0 0 -0 -0 0 0 0 0 0 0 0 0 0 0 0 0 0 0 0 0 0 0 0 0 0 -0 -0 0 -0 -0 -0 -0 0 0 0 0 0 0 0 0 0 -0 -0 -0 -0 -0
0 0 0 0 0 0 0 0 0 0 0 0 0 0 0 0 0 0 0 0 0 0 0 0 0 0 0 0 -0 -0 0 -0 0 0 0 0 0 0 0 0 0 0 0 0 0 -0 -0
0 0 0 0 0 0 0 0 0 0 0 0 0 0 0 0 0 0 0 0 0 0 0 0 0 0 0 0 -0 0 0 0 0 0 0 0 0 0 0 0 0 0 0 0 0 0 -0
0 0 0 0 0 0 0 0 0 0 0 0 0 0 0 0 0 0 0 0 0 0 0 0 0 0 0 -0 -0 0 0 0 0 -0 0 0 0 0 0 0 0 0 0 0 0 0 0
0 0 0 0 0 0 0 0 0 0 0 0 0 0 0 0 0 0 0 0 0 0 0 0 0 0 -0 0 0 0 0 0 0 0 0 0 0 0 0 0 0 0 0 0 0 0 0
0 0 0 0 0 0 0 0 0 -0 0 0 0 0 0 0 0 0 0 0 0 0 0 0 0 0 -0 -0 0 0 0 0 0 0 0 0 0 0 0 0 0 0 0 0 0 0 0
0 0 0 0 0 0 0 0 0 -0 0 0 0 0 0 0 0 0 0 0 0 0 0 0 0 0 0 0 0 0 0 0 0 0 0 0 0 0 0 0 0 0 0 0 0 0 0
Wind_Speed_500mb
3 4 5 7 8 11 13 16 16 17 19 21 22 19 18 18 19 20 22 24 26 29 31 33 35 38 36 16 25 26 18 24 30 27 17 19 23 24 26 22 25 33 39 46 49 56 52
2 3 3 5 7 9 12 14 14 16 19 20 19 18 18 19 21 23 25 29 32 33 34 35 37 37 22 26 22 19 26 13 24 19 20 18 18 24 29 35 34 38 43 40 42 46 57
4 3 1 3 5 7 10 11 13 17 18 19 19 18 19 20 23 28 32 34 37 41 40 38 38 28 27 42 25 26 15 32 25 22 28 26 28 27 23 31 33 30 34 36 39 40 44
7 6 3 1 2 5 7 10 13 15 17 18 19 18 20 26 29 34 35 39 42 46 40 35 34 17 22 28 19 11 22 32 26 25 28 30 29 37 42 39 45 38 41 39 34 41 49
9 7 4 3 1 3 4 8 10 14 16 19 21 22 24 29 35 38 38 43 43 38 38 23 18 12 23 17 16 21 35 29 34 33 30 29 27 37 35 29 31 34 36 43 36 29 33
11 9 8 6 4 4 5 7 11 14 17 21 24 25 29 34 40 44 44 48 29 28 17 24 6 12 14 23 40 36 26 29 29 23 25 26 19 20 21 23 32 38 37 39 33 30 36
15 13 12 9 8 6 4 6 10 14 18 22 26 29 33 38 42 42 50 38 22 7 31 17 38 33 44 32 33 22 38 35 25 21 26 28 20 29 37 37 45 41 48 49 43 37 38
18 17 14 12 10 7 6 6 9 14 18 22 26 31 36 40 42 34 41 19 13 20 23 23 21 25 29 23 27 43 43 15 17 30 30 28 37 45 44 43 45 49 50 51 50 47 41
22 20 18 15 13 10 8 7 9 13 17 22 26 31 36 39 35 37 32 32 32 20 13 14 13 17 15 21 51 58 14 22 28 34 34 39 45 42 44 38 43 53 52 49 48 40 40
24 22 20 17 15 12 10 7 9 12 17 22 27 32 36 38 19 35 16 38 33 16 6 8 7 4 17 54 12 35 18 18 18 29 38 33 34 33 44 50 47 51 50 48 45 35 29
27 25 23 19 17 15 12 9 9 13 18 22 27 33 37 35 32 19 33 37 26 6 10 18 7 13 45 27 40 4 28 25 38 38 22 42 49 46 43 56 49 54 36 43 45 37 36
30 28 25 21 20 17 14 11 11 12 17 23 28 33 36 35 25 26 33 34 9 6 7 12 11 36 42 22 32 21 29 30 38 29 36 43 56 43 53 52 43 33 35 22 38 29 27
33 31 28 25 22 18 17 13 12 13 18 24 30 35 35 27 19 29 34 12 6 4 14 15 22 29 40 27 27 23 41 25 17 19 35 53 31 31 8 17 8 17 23 13 14 17 24
37 34 30 28 24 22 19 15 13 13 19 26 31 34 30 18 27 30 24 4 5 2 8 18 26 37 15 25 21 34 27 25 19 28 36 24 47 17 5 13 17 20 23 10 14 21 26
39 37 33 30 26 25 22 16 13 14 19 27 32 32 14 23 27 25 8 3 5 5 11 23 34 10 9 16 21 24 34 16 15 23 24 23 23 36 36 38 16 17 19 31 9 18 18
39 40 36 32 28 28 23 18 13 14 19 26 32 24 10 24 23 15 5 5 4 5 13 8 11 6 19 25 25 30 20 11 20 27 36 12 34 22 38 3 8 10 12 15 7 9 12
41 42 39 34 32 30 25 19 13 15 19 27 26 10 8 25 13 7 3 4 7 9 8 6 9 15 17 26 30 26 14 30 10 42 45 31 10 30 32 10 5 7 7 15 15 17 9
45 44 42 38 37 32 28 19 14 14 19 23 12 5 12 19 6 5 4 5 8 10 8 13 9 15 18 28 21 17 17 27 39 45 36 18 12 15 38 22 5 6 8 31 11 11 13
48 45 46 41 39 34 30 20 16 11 17 23 15 6 9 12 4 3 5 5 6 7 12 7 9 7 11 13 16 20 23 20 52 51 15 24 9 17 10 2 15 6 20 18 32 16 14
52 49 49 44 42 37 32 23 17 11 14 17 7 4 6 8 6 2 8 3 9 9 17 15 23 22 13 18 13 22 31 23 61 45 29 36 10 15 17 27 26 19 37 42 9 10 15
51 50 51 48 46 41 33 26 18 12 12 11 5 1 1 5 2 5 5 4 8 12 7 19 9 5 16 11 27 9 25 41 35 7 40 10 11 21 36 35 24 26 48 42 35 27 16
55 54 52 52 46 42 36 29 22 15 9 6 3 2 0 3 5 8 3 3 10 14 8 13 11 25 23 17 22 40 39 34 20 18 37 17 10 29 10 10 20 14 51 39 45 40 23
57 59 55 53 49 45 39 32 26 18 11 6 5 4 2 3 3 4 1 5 9 21 11 20 29 30 23 15 37 54 53 51 41 35 21 15 14 18 13 27 27 6 46 30 21 39 24
65 63 58 55 52 47 42 36 29 23 15 12 8 5 4 3 5 5 6 10 16 18 22 29 34 15 16 53 57 31 21 26 27 25 27 20 25 7 13 24 8 9 34 19 25 47 54
71 63 62 58 56 49 45 41 34 27 19 13 10 7 5 5 6 9 10 12 19 17 11 20 21 18 40 34 11 13 3 3 6 14 19 12 10 10 9 12 3 25 41 22 19 32 55
73 69 61 62 60 51 48 45 37 31 21 15 12 12 7 3 5 6 6 5 8 11 7 10 21 25 21 7 6 13 11 11 13 29 13 14 11 6 9 10 19 29 53 78 15 33 58
82 75 70 66 65 59 52 49 41 34 25 17 14 14 10 6 7 4 2 5 6 7 6 11 23 17 18 11 7 9 7 3 13 20 17 14 9 18 20 10 8 41 65 41 22 15 56
78 81 75 77 72 66 56 53 46 37 27 20 15 16 15 6 9 5 4 1 5 5 6 15 13 5 10 10 9 7 6 9 9 8 17 13 15 11 12 14 14 71 28 19 19 38 42
81 81 73 68 79 70 62 56 48 39 30 22 20 18 19 11 7 4 5 7 4 4 4 9 4 9 11 6 5 5 5 7 8 9 13 8 9 8 14 8 13 30 29 41 41 32 43
Wind_Direction_500mb
340 351 26 26 38 42 39 37 35 31 28 26 17 8 355 345 341 339 339 338 337 331 327 323 319 320 333 311 279 278 288 300 296 305 294 298 296 291 272 283 280 270 273 273 275 276 276
300 315 12 22 34 36 38 34 30 30 26 18 8 357 346 342 339 339 340 337 334 329 322 317 314 319 322 287 275 282 296 304 311 294 283 284 287 299 290 272 272 278 290 282 277 276 274
242 262 279 16 34 36 35 32 31 26 21 7 355 346 338 338 340 340 339 336 330 322 314 308 306 313 293 271 286 291 295 312 308 284 281 281 283 276 281 289 272 274 280 276 266 260 264
228 238 242 329 8 28 27 24 24 21 10 350 339 339 343 339 341 338 335 331 325 316 311 306 302 300 278 289 295 228 305 301 301 283 276 282 273 269 260 259 268 268 267 267 263 247 250
227 233 223 234 305 344 5 20 15 11 356 340 339 345 345 340 338 335 333 330 325 317 314 326 309 294 281 290 317 297 301 296 301 286 273 275 266 253 261 250 266 249 255 263 270 244 240
223 222 220 228 253 286 338 4 4 1 346 340 342 344 342 339 337 335 336 340 333 320 334 345 19 285 256 315 306 305 327 313 290 287 273 238 237 250 245 244 254 269 261 260 256 258 256
219 217 217 217 230 259 305 345 356 349 341 343 342 342 340 340 337 336 344 360 349 274 331 285 291 279 288 310 309 305 315 304 270 259 264 251 248 253 258 252 250 262 268 274 276 275 276
219 218 217 220 232 245 284 323 347 339 340 341 344 341 341 341 337 340 348 25 356 309 313 303 281 275 294 306 299 308 311 270 265 278 288 275 257 261 270 265 258 259 260 260 266 262 264
221 221 217 218 229 237 258 300 329 334 335 341 343 341 341 342 339 343 348 354 343 336 288 291 289 292 318 312 309 306 321 287 280 280 285 280 273 278 275 260 261 253 247 254 259 270 269
224 225 222 217 231 242 255 285 317 331 332 342 340 342 343 345 353 336 330 335 340 338 292 336 345 347 337 324 273 308 298 289 282 281 296 284 278 275 275 258 243 251 242 245 255 263 264
223 228 224 221 228 240 254 274 305 323 332 339 338 342 344 346 335 332 324 331 336 22 325 349 323 321 331 327 310 311 326 293 278 291 284 268 289 292 277 265 261 265 252 250 249 249 251
224 225 225 221 231 239 245 268 293 319 330 334 338 341 343 342 340 326 327 333 344 251 309 333 311 333 334 328 316 291 318 307 278 283 276 271 287 276 267 276 268 247 228 250 242 234 239
224 225 225 223 228 231 246 261 285 315 328 331 335 338 342 340 329 329 331 345 291 330 1 321 329 327 324 321 315 326 328 322 328 317 320 310 288 310 284 302 273 189 174 214 206 209 233
222 226 226 224 227 235 241 257 282 313 324 327 331 336 340 343 334 333 340 291 309 85 298 320 316 319 308 348 328 332 322 329 343 342 315 338 321 349 102 283 303 203 190 209 217 228 239
225 225 225 226 224 233 238 249 275 304 319 326 328 336 338 339 337 341 340 355 334 351 339 325 322 330 321 317 326 322 318 311 323 346 349 310 291 309 290 281 223 162 205 221 335 264 269
226 224 224 225 226 232 238 247 271 298 317 327 329 334 301 341 342 5 27 313 292 323 324 329 310 23 314 332 330 333 308 307 336 349 348 281 297 327 323 313 185 280 302 220 230 269 220
224 222 224 222 224 230 237 243 266 294 318 327 335 328 304 344 351 28 23 306 294 289 303 258 299 291 280 321 325 322 283 301 351 338 333 302 254 293 320 7 300 200 209 220 247 273 317
225 222 222 220 221 224 232 235 257 290 317 326 335 326 331 350 4 51 303 310 304 298 285 279 276 275 282 324 306 308 273 297 321 339 327 353 291 293 299 298 340 319 268 214 232 228 216
224 222 221 220 220 220 225 225 245 283 314 328 326 276 343 4 26 342 301 278 270 300 309 286 278 260 290 307 312 296 300 291 322 334 326 1 306 302 338 160 56 345 287 249 252 295 257
222 220 218 216 218 219 221 218 232 263 303 330 328 342 9 50 75 331 313 338 319 294 285 275 282 305 323 299 255 289 294 305 327 316 324 326 263 264 289 298 303 325 350 16 192 219 272
217 219 218 215 215 215 215 216 223 244 289 337 359 21 3 337 68 318 316 310 324 341 260 306 291 256 319 295 304 247 298 315 329 35 344 321 281 295 296 283 274 31 7 16 22 351 22
215 216 214 215 213 213 211 211 217 232 265 294 282 191 189 268 279 306 212 278 320 331 292 299 261 308 309 278 278 295 303 315 310 318 329 331 283 315 290 280 337 45 10 5 26 11 1
215 216 214 211 211 212 211 207 213 223 238 259 237 244 236 191 237 272 280 307 303 326 280 268 302 312 306 316 307 288 285 281 278 293 307 310 316 331 295 329 320 34 10 355 27 25 354
213 215 209 209 211 212 207 206 210 222 229 241 249 228 183 239 242 247 275 303 299 302 277 296 303 303 295 317 310 290 269 260 263 272 265 289 316 290 296 315 44 61 17 359 351 26 14
209 212 204 207 211 209 205 206 208 218 227 238 251 224 226 274 251 267 272 302 307 300 282 292 303 296 312 318 328 320 343 303 275 259 290 301 303 313 320 321 344 357 355 343 346 25 10
213 206 201 208 209 205 206 205 208 216 222 236 250 240 238 278 228 249 323 4 327 326 310 282 311 318 339 312 342 5 16 320 319 331 335 337 261 275 312 26 15 350 337 332 303 32 356
214 211 203 204 203 204 203 205 208 213 220 230 252 238 235 252 263 177 39 10 335 306 288 314 333 333 358 357 6 17 4 264 334 335 334 337 358 16 358 31 52 351 336 342 47 334 346
222 208 207 201 210 202 200 203 206 211 217 227 253 239 230 257 277 223 229 123 322 316 333 339 307 32 332 19 4 20 327 358 297 316 332 349 342 3 348 24 10 349 353 42 342 15 13
213 211 210 212 208 194 199 201 205 209 216 226 241 240 233 235 261 233 247 264 199 271 337 16 9 345 345 318 19 304 333 322 339 354 10 39 16 354 25 47 26 2 21 29 35 32 31
Wind_Speed_850mb
3 4 5 7 8 11 13 16 16 17 19 21 22 19 18 18 19 20 22 24 26 29 31 33 35 38 36 16 25 26 18 24 30 27 17 19 23 24 26 22 25 33 39 46 49 56 52
2 3 3 5 7 9 12 14 14 16 19 20 19 18 18 19 21 23 25 29 32 33 34 35 37 37 22 26 22 19 26 13 24 19 20 18 18 24 29 35 34 38 43 40 42 46 57
4 3 1 3 5 7 10 11 13 17 18 19 19 18 19 20 23 28 32 34 37 41 40 38 38 28 27 42 25 26 15 32 25 22 28 26 28 27 23 31 33 30 34 36 39 40 44
7 6 3 1 2 5 7 10 13 15 17 18 19 18 20 26 29 34 35 39 42 46 40 35 34 17 22 28 19 11 22 32 26 25 28 30 29 37 42 39 45 38 41 39 34 41 49
9 7 4 3 1 3 4 8 10 14 16 19 21 22 24 29 35 38 38 43 43 38 38 23 18 12 23 17 16 21 35 29 34 33 30 29 27 37 35 29 31 34 36 43 36 29 33
11 9 8 6 4 4 5 7 11 14 17 21 24 25 29 34 40 44 44 48 29 28 17 24 6 12 14 23 40 36 26 29 29 23 25 26 19 20 21 23 32 38 37 39 33 30 36
15 13 12 9 8 6 4 6 10 14 18 22 26 29 33 38 42 42 50 38 22 7 31 17 38 33 44 32 33 22 38 35 25 21 26 28 20 29 37 37 45 41 48 49 43 37 38
18 17 14 12 10 7 6 6 9 14 18 22 26 31 36 40 42 34 41 19 13 20 23 23 21 25 29 23 27 43 43 15 17 30 30 28 37 45 44 43 45 49 50 51 50 47 41
22 20 18 15 13 10 8 7 9 13 17 22 26 31 36 39 35 37 32 32 32 20 13 14 13 17 15 21 51 58 14 22 28 34 34 39 45 42 44 38 43 53 52 49 48 40 40
24 22 20 17 15 12 10 7 9 12 17 22 27 32 36 38 19 35 16 38 33 16 6 8 7 4 17 54 12 35 18 18 18 29 38 33 34 33 44 50 47 51 50 48 45 35 29
27 25 23 19 17 15 12 9 9 13 18 22 27 33 37 35 32 19 33 37 26 6 10 18 7 13 45 27 40 4 28 25 38 38 22 42 49 46 43 56 49 54 36 43 45 37 36
30 28 25 21 20 17 14 11 11 12 17 23 28 33 36 35 25 26 33 34 9 6 7 12 11 36 42 22 32 21 29 30 38 29 36 43 56 43 53 52 43 33 35 22 38 29 27
33 31 28 25 22 18 17 13 12 13 18 24 30 35 35 27 19 29 34 12 6 4 14 15 22 29 40 27 27 23 41 25 17 19 35 53 31 31 8 17 8 17 23 13 14 17 24
37 34 30 28 24 22 19 15 13 13 19 26 31 34 30 18 27 30 24 4 5 2 8 18 26 37 15 25 21 34 27 25 19 28 36 24 47 17 5 13 17 20 23 10 14 21 26
39 37 33 30 26 25 22 16 13 14 19 27 32 32 14 23 27 25 8 3 5 5 11 23 34 10 9 16 21 24 34 16 15 23 24 23 23 36 36 38 16 17 19 31 9 18 18
39 40 36 32 28 28 23 18 13 14 19 26 32 24 10 24 23 15 5 5 4 5 13 8 11 6 19 25 25 30 20 11 20 27 36 12 34 22 38 3 8 10 12 15 7 9 12
41 42 39 34 32 30 25 19 13 15 19 27 26 10 8 25 13 7 3 4 7 9 8 6 9 15 17 26 30 26 14 30 10 42 45 31 10 30 32 10 5 7 7 15 15 17 9
45 44 42 38 37 32 28 19 14 14 19 23 12 5 12 19 6 5 4 5 8 10 8 13 9 15 18 28 21 17 17 27 39 45 36 18 12 15 38 22 5 6 8 31 11 11 13
48 45 46 41 39 34 30 20 16 11 17 23 15 6 9 12 4 3 5 5 6 7 12 7 9 7 11 13 16 20 23 20 52 51 15 24 9 17 10 2 15 6 20 18 32 16 14
52 49 49 44 42 37 32 23 17 11 14 17 7 4 6 8 6 2 8 3 9 9 17 15 23 22 13 18 13 22 31 23 61 45 29 36 10 15 17 27 26 19 37 42 9 10 15
51 50 51 48 46 41 33 26 18 12 12 11 5 1 1 5 2 5 5 4 8 12 7 19 9 5 16 11 27 9 25 41 35 7 40 10 11 21 36 35 24 26 48 42 35 27 16
55 54 52 52 46 42 36 29 22 15 9 6 3 2 0 3 5 8 3 3 10 14 8 13 11 25 23 17 22 40 39 34 20 18 37 17 10 29 10 10 20 14 51 39 45 40 23
57 59 55 53 49 45 39 32 26 18 11 6 5 4 2 3 3 4 1 5 9 21 11 20 29 30 23 15 37 54 53 51 41 35 21 15 14 18 13 27 27 6 46 30 21 39 24
65 63 58 55 52 47 42 36 29 23 15 12 8 5 4 3 5 5 6 10 16 18 22 29 34 15 16 53 57 31 21 26 27 25 27 20 25 7 13 24 8 9 34 19 25 47 54
71 63 62 58 56 49 45 41 34 27 19 13 10 7 5 5 6 9 10 12 19 17 11 20 21 18 40 34 11 13 3 3 6 14 19 12 10 10 9 12 3 25 41 22 19 32 55
73 69 61 62 60 51 48 45 37 31 21 15 12 12 7 3 5 6 6 5 8 11 7 10 21 25 21 7 6 13 11 11 13 29 13 14 11 6 9 10 19 29 53 78 15 33 58
82 75 70 66 65 59 52 49 41 34 25 17 14 14 10 6 7 4 2 5 6 7 6 11 23 17 18 11 7 9 7 3 13 20 17 14 9 18 20 10 8 41 65 41 22 15 56
78 81 75 77 72 66 56 53 46 37 27 20 15 16 15 6 9 5 4 1 5 5 6 15 13 5 10 10 9 7 6 9 9 8 17 13 15 11 12 14 14 71 28 19 19 38 42
81 81 73 68 79 70 62 56 48 39 30 22 20 18 19 11 7 4 5 7 4 4 4 9 4 9 11 6 5 5 5 7 8 9 13 8 9 8 14 8 13 30 29 41 41 32 43
Wind_Direction_850mb
340 351 26 26 38 42 39 37 35 31 28 26 17 8 355 345 341 339 339 338 337 331 327 323 319 320 333 311 279 278 288 300 296 305 294 298 296 291 272 283 280 270 273 273 275 276 276
300 315 12 22 34 36 38 34 30 30 26 18 8 357 346 342 339 339 340 337 334 329 322 317 314 319 322 287 275 282 296 304 311 294 283 284 287 299 290 272 272 278 290 282 277 276 274
242 262 279 16 34 36 35 32 31 26 21 7 355 346 338 338 340 340 339 336 330 322 314 308 306 313 293 271 286 291 295 312 308 284 281 281 283 276 281 289 272 274 280 276 266 260 264
228 238 242 329 8 28 27 24 24 21 10 350 339 339 343 339 341 338 335 331 325 316 311 306 302 300 278 289 295 228 305 301 301 283 276 282 273 269 260 259 268 268 267 267 263 247 250
227 233 223 234 305 344 5 20 15 11 356 340 339 345 345 340 338 335 333 330 325 317 314 326 309 294 281 290 317 297 301 296 301 286 273 275 266 253 261 250 266 249 255 263 270 244 240
223 222 220 228 253 286 338 4 4 1 346 340 342 344 342 339 337 335 336 340 333 320 334 345 19 285 256 315 306 305 327 313 290 287 273 238 237 250 245 244 254 269 261 260 256 258 256
219 217 217 217 230 259 305 345 356 349 341 343 342 342 340 340 337 336 344 360 349 274 331 285 291 279 288 310 309 305 315 304 270 259 264 251 248 253 258 252 250 262 268 274 276 275 276
219 218 217 220 232 245 284 323 347 339 340 341 344 341 341 341 337 340 348 25 356 309 313 303 281 275 294 306 299 308 311 270 265 278 288 275 257 261 270 265 258 259 260 260 266 262 264
221 221 217 218 229 237 258 300 329 334 335 341 343 341 341 342 339 343 348 354 343 336 288 291 289 292 318 312 309 306 321 287 280 280 285 280 273 278 275 260 261 253 247 254 259 270 269
224 225 222 217 231 242 255 285 317 331 332 342 340 342 343 345 353 336 330 335 340 338 292 336 345 347 337 324 273 308 298 289 282 281 296 284 278 275 275 258 243 251 242 245 255 263 264
223 228 224 221 228 240 254 274 305 323 332 339 338 342 344 346 335 332 324 331 336 22 325 349 323 321 331 327 310 311 326 293 278 291 284 268 289 292 277 265 261 265 252 250 249 249 251
224 225 225 221 231 239 245 268 293 319 330 334 338 341 343 342 340 326 327 333 344 251 309 333 311 333 334 328 316 291 318 307 278 283 276 271 287 276 267 276 268 247 228 250 242 234 239
224 225 225 223 228 231 246 261 285 315 328 331 335 338 342 340 329 329 331 345 291 330 1 321 329 327 324 321 315 326 328 322 328 317 320 310 288 310 284 302 273 189 174 214 206 209 233
222 226 226 224 227 235 241 257 282 313 324 327 331 336 340 343 334 333 340 291 309 85 298 320 316 319 308 348 328 332 322 329 343 342 315 338 321 349 102 283 303 203 190 209 217 228 239
225 225 225 226 224 233 238 249 275 304 319 326 328 336 338 339 337 341 340 355 334 351 339 325 322 330 321 317 326 322 318 311 323 346 349 310 291 309 290 281 223 162 205 221 335 264 269
226 224 224 225 226 232 238 247 271 298 317 327 329 334 301 341 342 5 27 313 292 323 324 329 310 23 314 332 330 333 308 307 336 349 348 281 297 327 323 313 185 280 302 220 230 269 220
224 222 224 222 224 230 237 243 266 294 318 327 335 328 304 344 351 28 23 306 294 289 303 258 299 291 280 321 325 322 283 301 351 338 333 302 254 293 320 7 300 200 209 220 247 273 317
225 222 222 220 221 224 232 235 257 290 317 326 335 326 331 350 4 51 303 310 304 298 285 279 276 275 282 324 306 308 273 297 321 339 327 353 291 293 299 298 340 319 268 214 232 228 216
224 222 221 220 220 220 225 225 245 283 314 328 326 276 343 4 26 342 301 278 270 300 309 286 278 260 290 307 312 296 300 291 322 334 326 1 306 302 338 160 56 345 287 249 252 295 257
222 220 218 216 218 219 221 218 232 263 303 330 328 342 9 50 75 331 313 338 319 294 285 275 282 305 323 299 255 289 294 305 327 316 324 326 263 264 289 298 303 325 350 16 192 219 272
217 219 218 215 215 215 215 216 223 244 289 337 359 21 3 337 68 318 316 310 324 341 260 306 291 256 319 295 304 247 298 315 329 35 344 321 281 295 296 283 274 31 7 16 22 351 22
215 216 214 215 213 213 211 211 217 232 265 294 282 191 189 268 279 306 212 278 320 331 292 299 261 308 309 278 278 295 303 315 310 318 329 331 283 315 290 280 337 45 10 5 26 11 1
215 216 214 211 211 212 211 207 213 223 238 259 237 244 236 191 237 272 280 307 303 326 280 268 302 312 306 316 307 288 285 281 278 293 307 310 316 331 295 329 320 34 10 355 27 25 354
213 215 209 209 211 212 207 206 210 222 229 241 249 228 183 239 242 247 275 303 299 302 277 296 303 303 295 317 310 290 269 260 263 272 265 289 316 290 296 315 44 61 17 359 351 26 14
209 212 204 207 211 209 205 206 208 218 227 238 251 224 226 274 251 267 272 302 307 300 282 292 303 296 312 318 328 320 343 303 275 259 290 301 303 313 320 321 344 357 355 343 346 25 10
213 206 201 208 209 205 206 205 208 216 222 236 250 240 238 278 228 249 323 4 327 326 310 282 311 318 339 312 342 5 16 320 319 331 335 337 261 275 312 26 15 350 337 332 303 32 356
214 211 203 204 203 204 203 205 208 213 220 230 252 238 235 252 263 177 39 10 335 306 288 314 333 333 358 357 6 17 4 264 334 335 334 337 358 16 358 31 52 351 336 342 47 334 346
222 208 207 201 210 202 200 203 206 211 217 227 253 239 230 257 277 223 229 123 322 316 333 339 307 32 332 19 4 20 327 358 297 316 332 349 342 3 348 24 10 349 353 42 342 15 13
213 211 210 212 208 194 199 201 205 209 216 226 241 240 233 235 261 233 247 264 199 271 337 16 9 345 345 318 19 304 333 322 339 354 10 39 16 354 25 47 26 2 21 29 35 32 31